Showing default

FENGYUN 3D, 43010

Orbit data source: Space-Track

FENGYUN 3D, 43010 is a payload satellite owned by CNMSC (CN) in SSO that was launched on Tue, 14 Nov 2017 UTC via a CHANG ZHENG 4C launch vehicle from the Taiyaun Space Center, China (TSC). Payload-class satellites include a variety of spacecraft equipped with specific instruments for various scientific and technological missions. These include communications satellites like Starlink; space stations such as the ISS; scientific satellites like the Hubble; Earth observation satellites from companies like Planet Labs, Umbra, and HawkEye 360; GPS; miniature CubeSats for education and research; and military/defense satellites.

Loading next visibility...
Identifier
43010, 2017-072A
Orbit
SSO
Last TLE update
10 hours ago
Origin
Manufacturer
SISE
Mission
Operational Civil Weather
Bus & Motor
FY-3, Unknown motor
Mass
2,450 kg wet, 2,250 kg dry
Launch date (UTC)
2017-11-14 (8 years ago)
Launch vehicle
CHANG ZHENG 4C
Launch site
Taiyaun Space Center, China (TSC)
Object type
Payload
Rocket body
Debris
Shape & HBR
Box + 2 Pan, 10 m
Radar Cross Section
15.104 m², Large (>1 m²)

Expand to show TLE details & history

TLE from 10 hours ago
0 FENGYUN 3D
1 43010U 17072A   25186.53898743  .00000047  00000-0  44101-4 0  9999
2 43010  98.9633 150.6757 0001284   9.3029 350.8170 14.19635981395803
Epoch: 2025-07-05T12:56Z
TLE epoch observation values (Epoch: 2025-07-05T12:56:08.513Z)
Latitude
-0.00005°
Longitude
32.86465°
Altitude
828.576 km
Speed
7.439 km/s
True Right ascension
10h 02m 42s
True Declination
0° 00' 00"
Sunlit
Object was in daylight at epoch
Visualization orbit readout
Latitude
-49.04536°
Longitude
-157.14829°
Altitude
846.247 km
Speed
7.428 km/s
Apparent Right ascension
21h 54m 04s
Apparent Declination
-44° 50' 53"
Sunlit
Object is in full shadow
Visualization observer readout
Local Sidereal Time
10:24:29
Azimuth
133.797° SE
Elevation
-82.531°
Doppler factor
1
Orbital elements
Apogee altitude
824.68 km
Perigee altitude
822.831 km
Semi-major axis
7,201.893 km
Eccentricity
0.00013
Inclination
98.9633°
RAAN
150.6757°
Arg. of periapsis
9.3029°
True anomaly
Unknown
Mean anomaly
350.817°
Eccentric anomaly
Unknown
Mean motion
3.55118 °/min
Orbital period
101.37 mins
BSTAR
0.000044101
Loading maneuver chart data...
Loading SW <> Apogee altitude chart data...
Loading historical data...
Loading historical data...
Loading historical data...
Loading historical data...
Loading historical data...
Loading historical data...
Loading historical data...
Other satellites on launch #72 in the year 2017 (2017-11-14 UTC)

FENGYUN 3D Visibility forecast

Observer location: undefined°, undefined°

Span
Click to sort rows by Start time (UTC) header in descending order
Start Az.
Max El. time (UTC)
Max El. Az.
Max El.
End time (UTC)
End Az.
8 mins2025-07-06 09:50:17.977Z40.835° NE2025-07-06 09:53:17.977Z85.799° E29.53°2025-07-06 09:58:17.977Z161.279° S
7 mins2025-07-06 11:31:17.977Z335.641° NNW2025-07-06 11:34:17.977Z284.329° WNW25.72°2025-07-06 11:38:17.977Z235.873° WSW
9 mins2025-07-06 21:12:17.977Z145.395° SSE2025-07-06 21:16:17.977Z66.357° ENE40.178°2025-07-06 21:21:17.977Z354.767° N
|